Temperature
10 10 10 10 10 10 10 10 10 10 10 10 10 10 10 10 10 10 10 10 11 10 10 10 10 10 10 10 10 10 10 10 10 10 10 9 9 10 9 9 9 9 9
10 10 10 10 10 10 10 10 10 10 10 10 10 10 10 10 10 10 10 10 10 10 10 10 10 10 10 10 10 10 10 10 10 10 9 9 9 9 9 9 9 9 9
9 9 9 9 9 9 9 9 9 9 9 9 9 9 9 9 10 9 10 10 10 10 10 10 10 10 9 9 9 9 9 9 9 9 9 9 9 9 9 9 9 9 8
9 9 9 9 9 9 9 9 9 9 9 9 9 9 9 9 9 9 9 9 9 9 9 9 9 9 9 9 9 9 9 9 9 9 9 9 9 9 9 9 8 8 8
8 8 8 8 8 8 8 8 8 8 8 8 8 8 8 8 9 9 9 9 9 9 9 9 9 9 9 9 9 9 9 9 9 9 9 9 8 8 8 8 8 8 8
8 7 8 8 8 8 8 8 8 8 8 8 8 8 8 8 8 8 8 8 8 8 8 9 9 9 9 9 8 8 8 8 8 8 8 8 8 8 8 8 8 8 8
7 7 7 7 7 7 7 7 7 7 7 7 7 7 7 7 7 7 8 8 8 8 8 8 8 8 8 8 8 8 8 8 8 8 8 8 8 8 8 8 7 7 7
6 7 7 7 7 7 7 7 7 7 7 7 7 7 6 7 7 7 7 7 7 7 7 7 8 8 8 8 8 8 8 8 8 8 8 8 8 7 7 7 7 7 7
6 6 6 6 6 6 7 6 6 7 7 6 6 6 6 6 6 6 7 7 7 7 7 7 7 7 7 7 7 7 7 7 7 7 7 7 7 7 7 7 7 7 7
5 5 6 6 6 6 6 6 6 6 6 6 6 6 6 6 6 6 6 6 6 6 7 7 7 7 7 7 7 7 7 7 7 7 7 7 7 7 7 7 7 6 6
4 5 5 5 5 5 6 6 6 6 6 6 6 6 6 6 6 6 5 5 6 6 6 6 6 6 6 6 6 7 7 6 6 7 6 6 7 7 7 7 6 6 6
4 4 4 4 4 5 5 5 5 5 5 5 5 5 5 5 5 5 5 5 5 5 5 6 6 6 6 6 6 6 6 6 6 6 6 6 6 6 6 6 6 6 6
3 3 3 4 4 4 4 5 5 5 5 5 5 5 5 5 5 5 5 4 4 4 5 5 5 5 5 5 5 5 5 5 6 6 6 6 6 6 6 6 6 6 6
3 3 3 3 3 4 4 4 4 4 4 4 4 4 4 4 4 4 4 4 4 4 4 4 4 5 5 5 5 5 5 5 5 5 5 5 5 5 5 5 5 5 5
2 2 2 3 3 3 3 3 3 3 4 4 4 4 4 4 4 4 4 4 4 3 3 4 4 4 4 4 4 4 4 5 5 5 5 5 5 5 5 5 5 5 5
2 2 2 2 2 2 3 3 3 3 3 3 3 3 3 4 3 3 3 3 3 3 3 3 3 4 4 4 4 4 4 4 4 4 4 4 4 4 4 4 4 4 4
1 1 1 1 2 2 2 2 2 2 2 3 3 3 3 3 3 3 3 3 3 3 3 3 3 3 3 3 3 3 3 4 4 4 4 4 4 4 4 3 3 4 4
0 1 1 1 1 1 1 2 2 2 2 2 2 2 2 2 2 2 2 2 2 2 2 2 2 2 3 3 3 3 3 3 3 3 3 3 3 3 3 3 3 3 3
-0 0 0 0 0 1 1 1 1 1 2 2 2 2 2 2 2 2 2 2 2 2 2 2 2 2 2 2 2 2 2 2 2 2 2 3 3 3 2 2 2 2 2
-1 -1 -0 -0 -0 0 0 1 1 1 1 1 1 1 1 1 1 1 1 1 1 1 1 1 1 1 1 1 1 1 2 2 2 2 2 2 2 2 2 2 2 2 2
-1 -1 -1 -1 -1 -0 -0 -0 0 0 1 1 1 1 1 1 1 1 1 1 1 1 1 1 1 0 1 1 1 1 1 1 1 1 1 1 1 1 1 1 1 1 1
-2 -2 -1 -1 -1 -1 -1 -1 -1 -0 -0 0 0 1 1 1 1 1 1 1 0 0 0 0 0 0 0 0 0 0 0 0 0 0 0 1 1 1 1 1 1 1 1
-2 -2 -2 -2 -2 -1 -1 -1 -1 -1 -1 -0 -0 0 0 0 0 0 0 0 0 0 0 -0 -0 0 -0 -0 -0 -0 -0 -0 -0 -0 -0 -0 0 0 0 0 0 0 0
-3 -3 -2 -2 -2 -2 -2 -2 -1 -1 -1 -1 -0 -0 -0 -0 -0 -0 -0 -0 -0 -0 -0 -0 -0 -0 -1 -1 -1 -1 -1 -1 -1 -1 -1 -1 -1 -0 -0 -0 -0 -0 -0
-3 -3 -3 -3 -3 -2 -2 -2 -2 -2 -2 -1 -1 -1 -1 -1 -1 -1 -1 -1 -1 -1 -1 -1 -1 -1 -1 -1 -1 -2 -2 -2 -2 -2 -2 -2 -2 -1 -1 -1 -1 -1 -1
-3 -3 -3 -3 -3 -3 -3 -3 -2 -2 -2 -2 -2 -2 -2 -2 -1 -1 -1 -1 -1 -1 -1 -1 -1 -1 -1 -2 -2 -2 -2 -2 -2 -2 -2 -2 -2 -2 -2 -2 -1 -1 -1
Wind_Speed
3 4 4 4 5 5 6 5 5 6 6 6 6 6 6 5 5 5 5 6 6 6 6 6 6 7 7 8 8 7 8 8 8 8 8 8 7 7 7 7 7 7 8
2 3 3 3 4 4 5 5 5 5 5 5 5 5 5 5 5 5 4 4 4 5 4 5 5 6 6 7 7 7 6 6 7 7 7 6 6 6 6 6 6 6 5
3 3 3 2 2 3 5 5 5 5 4 4 4 4 4 4 5 4 4 4 3 4 5 5 5 5 6 6 6 6 6 6 6 5 5 5 4 4 4 4 4 4 5
3 3 3 2 2 3 4 3 3 3 3 3 3 2 3 3 4 4 5 4 4 4 4 5 5 5 5 5 5 5 5 5 5 4 4 3 3 3 3 3 3 3 3
3 3 3 2 3 3 3 2 2 3 3 3 3 2 2 2 3 4 4 4 4 5 5 5 5 5 5 5 4 4 4 4 4 4 3 2 2 1 1 1 1 2 2
3 3 2 2 3 3 2 2 2 3 3 3 3 3 2 2 2 3 3 3 4 4 4 4 4 3 4 4 4 3 3 3 3 3 2 2 1 0 0 0 1 1 1
3 3 2 2 2 3 3 3 2 4 2 2 3 2 2 2 2 2 2 2 3 3 3 3 3 3 2 3 4 3 2 2 2 2 2 1 1 0 1 1 1 1 2
2 3 2 2 2 3 3 3 3 3 2 2 2 2 1 0 1 1 1 1 2 3 2 2 3 3 2 2 2 2 2 1 1 1 1 1 1 0 1 2 2 2 2
2 2 2 2 2 4 4 4 3 4 3 1 1 2 2 2 1 1 0 1 1 2 1 1 2 1 1 1 1 1 1 1 0 0 0 1 1 2 2 2 2 2 3
2 1 2 2 2 2 4 4 3 3 4 3 1 1 1 2 2 1 1 1 1 0 0 0 0 1 1 1 1 1 1 1 1 2 2 2 2 3 4 3 3 3 3
1 1 1 1 1 2 3 4 4 3 3 3 2 1 1 1 1 2 2 1 1 1 1 1 1 2 2 2 2 2 2 2 2 3 3 3 4 4 4 3 3 3 3
0 2 1 1 1 1 2 4 4 4 4 3 2 2 2 2 2 1 2 2 2 2 2 1 1 2 3 3 3 3 3 3 3 4 4 4 4 4 3 3 3 3 3
1 1 1 0 1 1 1 1 4 4 4 4 3 3 2 2 1 1 1 1 1 2 1 1 1 2 3 3 4 4 4 4 5 5 5 5 4 3 3 3 3 3 4
3 2 1 1 1 1 2 1 2 4 3 4 3 3 2 2 2 2 2 2 1 1 2 2 1 2 3 4 5 5 4 5 5 6 6 5 5 4 3 3 3 3 4
2 1 1 1 1 1 1 2 2 4 3 4 4 4 3 2 2 1 2 2 3 3 4 2 2 1 3 4 5 5 5 6 6 6 6 6 5 5 4 4 3 3 4
1 1 1 2 2 2 2 3 3 3 4 3 3 3 3 2 2 2 2 2 2 2 3 2 2 2 2 3 5 5 6 6 7 7 7 6 5 5 6 5 5 4 4
2 2 2 2 2 2 2 2 3 3 4 4 4 4 4 3 3 3 2 2 2 2 3 3 2 2 2 2 3 4 4 4 5 6 5 5 5 6 7 6 6 5 5
2 2 2 2 3 3 3 3 4 3 4 5 5 5 5 4 4 3 3 3 3 2 2 3 3 2 2 2 2 2 2 3 3 5 6 6 6 6 7 7 6 6 6
2 2 2 3 3 3 4 4 4 4 4 6 6 6 6 5 5 3 4 3 3 2 2 3 3 2 2 2 1 2 2 2 3 4 5 6 7 7 7 7 7 7 7
2 2 3 3 3 3 3 4 4 4 4 5 6 6 6 6 6 6 5 4 3 3 2 2 3 3 2 2 1 2 2 2 2 3 4 5 5 6 7 7 8 7 7
2 2 2 2 3 3 3 4 4 4 4 5 5 5 6 6 7 6 5 5 5 3 3 3 3 3 2 2 3 2 3 2 3 2 3 3 2 3 4 6 7 7 7
2 2 2 2 3 3 4 4 4 4 4 5 5 4 5 5 6 6 6 6 6 5 5 4 4 4 4 3 2 2 2 2 3 1 2 3 2 3 4 4 5 6 6
2 2 3 3 3 4 4 4 5 3 4 4 5 5 4 5 5 5 5 6 6 7 7 5 5 6 5 5 4 3 3 3 4 2 2 4 3 4 4 5 6 6 7
2 3 3 3 3 4 5 4 4 3 3 3 4 5 5 5 5 5 5 5 5 5 6 5 6 6 5 5 5 5 4 3 3 2 2 4 3 3 4 4 6 7 7
2 3 3 3 3 4 5 5 4 2 3 3 3 4 4 4 6 6 5 5 4 3 4 5 6 6 7 7 6 3 3 3 4 3 2 2 2 3 3 4 5 7 7
3 3 3 3 4 4 5 5 4 3 3 3 3 4 5 5 6 5 5 5 5 4 3 2 2 3 3 5 6 5 4 4 3 3 2 2 2 2 3 3 3 4 4
Wind_Direction
89 89 87 89 83 87 93 90 96 101 101 98 99 98 92 92 94 90 93 90 90 92 94 102 113 129 134 126 118 114 110 106 103 97 91 87 83 80 76 76 75 73 71
92 94 90 86 79 87 92 99 103 106 104 99 92 93 95 96 94 90 90 91 86 83 93 96 102 113 124 128 124 124 120 115 110 102 93 84 81 79 76 75 73 71 68
108 104 90 82 82 93 90 91 86 97 100 96 96 89 91 94 96 92 90 88 88 85 82 85 89 103 113 123 129 130 134 128 122 115 106 93 86 81 79 73 72 70 66
101 116 110 96 108 103 93 91 97 107 106 108 106 94 85 91 94 97 96 90 86 84 80 77 76 89 100 114 121 124 139 142 137 132 122 110 105 96 86 80 72 63 58
98 102 112 105 122 103 87 93 105 118 123 115 110 96 80 84 89 89 86 88 89 86 83 75 65 67 81 95 105 109 118 138 143 140 136 134 138 124 100 80 59 42 42
103 97 99 107 117 113 106 107 124 102 126 122 108 85 70 77 84 89 88 82 87 88 81 74 64 63 68 74 86 97 99 125 141 141 143 143 146 166 217 294 313 360 352
98 103 93 113 118 132 136 129 130 123 113 119 112 91 58 65 80 85 87 85 77 84 85 82 74 73 74 72 69 68 97 94 132 138 126 108 120 33 303 291 296 292 305
105 117 116 124 138 138 132 131 126 138 133 129 128 135 131 56 3 46 65 89 82 83 75 79 78 72 73 75 67 48 45 77 131 132 117 73 28 285 285 284 286 286 293
101 114 133 139 138 156 164 164 149 148 158 165 127 132 152 195 219 330 21 70 77 76 65 75 93 105 96 94 89 34 23 20 268 285 334 288 289 292 278 283 295 291 289
62 103 132 142 146 161 168 176 165 162 159 170 174 103 144 147 161 198 301 351 22 323 268 70 166 186 186 192 212 235 283 319 293 264 280 299 301 286 288 282 281 297 306
34 58 111 117 149 156 169 175 177 168 168 170 172 156 130 100 107 159 213 251 324 299 287 225 194 203 205 223 236 248 253 261 286 273 273 284 295 299 285 287 296 292 302
43 19 32 111 160 168 170 184 184 183 185 175 171 162 157 163 176 168 187 230 251 281 294 291 219 215 217 226 242 261 261 261 275 279 272 276 288 293 297 296 304 321 317
206 232 297 286 239 206 178 171 185 190 191 185 187 193 181 180 167 171 167 213 259 285 275 278 260 233 229 226 239 257 261 264 265 270 268 266 274 282 290 298 308 315 324
216 222 258 275 296 209 183 174 195 200 197 197 200 192 183 187 174 180 174 176 224 269 263 260 283 239 242 238 242 248 255 266 270 269 269 267 261 263 265 274 284 295 306
231 205 243 256 263 223 204 181 199 210 203 204 203 198 195 189 183 180 177 181 183 226 246 243 252 293 272 261 257 247 249 259 264 266 267 266 263 249 246 254 267 277 292
249 203 211 229 236 218 207 193 195 211 202 210 200 192 200 190 181 183 187 196 199 207 242 248 260 287 275 272 274 262 257 263 264 263 264 262 261 255 245 245 251 258 265
238 211 213 221 222 215 208 200 206 210 209 213 204 199 209 193 189 192 192 192 203 201 240 273 279 285 269 273 280 271 259 255 254 254 258 263 264 260 247 240 243 249 254
251 234 219 217 225 223 212 208 212 218 214 214 210 203 210 205 199 199 199 202 208 210 216 250 274 273 268 260 256 266 281 266 260 258 261 263 267 269 259 242 244 250 254
247 241 218 221 229 232 223 220 216 219 224 220 211 207 210 202 208 210 207 209 214 226 221 226 258 272 269 257 263 289 293 289 283 276 268 266 265 266 269 259 252 250 250
241 231 226 223 227 235 237 227 221 221 227 229 217 211 209 209 210 208 210 209 204 203 206 214 242 254 260 247 224 248 277 281 293 297 280 275 271 266 265 262 252 248 246
255 244 235 234 228 228 235 225 220 222 227 234 222 215 215 217 221 218 217 206 198 202 207 220 232 250 247 232 236 247 260 276 289 294 292 284 287 282 279 268 258 251 247
257 254 248 245 247 245 256 252 248 223 224 235 226 225 219 213 221 227 228 221 212 208 210 220 236 237 242 239 242 239 244 263 275 276 270 281 274 278 280 266 267 260 252
252 262 259 249 253 260 268 261 262 243 225 233 224 223 229 221 223 212 223 226 228 231 226 219 223 232 229 224 221 233 236 243 259 264 274 275 277 275 282 270 273 271 261
242 245 255 250 250 265 274 273 274 252 237 241 231 223 224 219 220 214 212 218 224 227 227 223 223 228 226 211 213 226 235 255 278 274 251 262 273 273 285 278 271 272 267
245 247 254 246 246 267 276 279 275 240 245 251 245 231 225 222 234 230 213 210 219 229 237 232 232 232 231 228 215 202 208 228 260 257 240 247 273 283 277 272 270 267 266
246 257 266 257 249 257 271 276 272 232 242 247 246 230 232 239 240 234 214 202 213 225 212 214 232 241 230 218 221 216 210 222 246 254 224 221 261 281 285 268 266 267 274
Height
1527 1528 1530 1533 1535 1537 1539 1540 1542 1544 1545 1547 1548 1550 1551 1553 1554 1555 1556 1557 1558 1559 1560 1561 1561 1562 1562 1563 1563 1564 1564 1565 1565 1566 1566 1566 1566 1566 1566 1566 1566 1566 1566
1525 1526 1528 1531 1533 1535 1537 1539 1541 1542 1544 1546 1547 1549 1550 1552 1553 1554 1555 1556 1557 1558 1559 1560 1561 1562 1562 1562 1563 1564 1564 1565 1565 1565 1565 1566 1566 1566 1566 1566 1566 1566 1566
1524 1525 1526 1529 1531 1533 1535 1537 1539 1541 1543 1544 1546 1548 1549 1551 1552 1553 1554 1555 1556 1557 1558 1559 1560 1561 1561 1562 1562 1563 1563 1564 1564 1564 1565 1565 1565 1565 1565 1565 1565 1565 1565
1522 1523 1525 1527 1529 1531 1533 1535 1537 1539 1541 1542 1544 1546 1547 1549 1550 1551 1553 1554 1555 1556 1557 1558 1558 1559 1560 1560 1561 1562 1562 1563 1563 1563 1563 1564 1564 1564 1564 1564 1564 1564 1564
1519 1520 1522 1525 1527 1529 1531 1533 1536 1537 1539 1541 1542 1544 1546 1547 1548 1550 1551 1552 1553 1554 1555 1556 1557 1557 1558 1559 1560 1560 1561 1561 1562 1562 1562 1563 1563 1563 1563 1563 1563 1563 1563
1516 1518 1520 1522 1524 1527 1529 1531 1533 1535 1537 1539 1541 1542 1544 1545 1546 1548 1549 1550 1551 1552 1553 1554 1555 1555 1556 1557 1558 1558 1559 1559 1560 1560 1561 1561 1561 1561 1561 1561 1561 1562 1562
1513 1515 1517 1520 1522 1524 1526 1529 1531 1533 1535 1537 1538 1540 1542 1543 1544 1545 1547 1548 1548 1549 1551 1552 1552 1553 1554 1555 1555 1556 1557 1558 1558 1558 1559 1559 1559 1559 1559 1560 1560 1560 1560
1511 1512 1515 1516 1518 1521 1523 1526 1528 1530 1532 1534 1536 1537 1539 1542 1542 1543 1544 1545 1546 1547 1548 1549 1550 1551 1551 1552 1553 1554 1555 1555 1556 1556 1557 1557 1557 1558 1558 1558 1558 1558 1558
1507 1509 1511 1513 1515 1517 1520 1522 1525 1527 1529 1531 1534 1535 1537 1537 1538 1540 1541 1542 1543 1545 1546 1546 1547 1548 1549 1550 1550 1551 1552 1553 1553 1554 1554 1555 1555 1555 1555 1555 1555 1555 1555
1504 1506 1508 1510 1512 1514 1516 1519 1521 1524 1526 1528 1530 1532 1534 1535 1536 1536 1538 1539 1540 1542 1543 1544 1545 1546 1546 1547 1548 1548 1549 1549 1550 1551 1551 1552 1552 1552 1553 1552 1552 1552 1552
1501 1503 1505 1507 1509 1511 1513 1516 1518 1521 1523 1525 1527 1528 1530 1532 1533 1533 1533 1535 1537 1538 1540 1541 1542 1542 1543 1544 1544 1545 1546 1547 1547 1548 1548 1548 1549 1549 1549 1549 1549 1549 1549
1498 1500 1502 1504 1506 1508 1510 1512 1515 1517 1520 1522 1524 1525 1526 1528 1529 1530 1530 1531 1533 1535 1536 1537 1538 1539 1539 1540 1541 1541 1542 1543 1543 1544 1544 1545 1545 1545 1546 1546 1546 1546 1546
1494 1497 1499 1500 1502 1504 1507 1509 1511 1514 1516 1518 1520 1522 1523 1525 1527 1528 1528 1529 1529 1531 1532 1533 1534 1535 1536 1537 1537 1538 1538 1539 1539 1540 1540 1541 1541 1542 1542 1542 1542 1542 1541
1491 1493 1495 1497 1499 1501 1503 1506 1508 1510 1512 1515 1516 1518 1520 1521 1523 1524 1525 1526 1526 1527 1528 1529 1530 1531 1532 1533 1533 1534 1534 1535 1535 1536 1536 1537 1537 1537 1537 1538 1537 1537 1537
1488 1490 1492 1494 1496 1497 1499 1502 1504 1506 1508 1510 1512 1515 1516 1517 1519 1521 1522 1523 1524 1523 1523 1525 1526 1527 1528 1529 1529 1529 1530 1531 1531 1531 1532 1532 1532 1533 1533 1533 1533 1533 1533
1485 1486 1488 1490 1492 1494 1496 1497 1499 1502 1504 1506 1508 1510 1512 1513 1515 1516 1518 1520 1520 1521 1520 1520 1521 1522 1524 1525 1525 1525 1526 1526 1526 1527 1527 1527 1527 1528 1528 1528 1528 1528 1528
1481 1483 1485 1486 1488 1489 1491 1493 1495 1497 1499 1501 1503 1505 1507 1509 1510 1512 1514 1515 1516 1517 1516 1516 1517 1518 1519 1520 1521 1521 1521 1521 1521 1522 1522 1523 1523 1523 1523 1523 1524 1524 1524
1478 1479 1481 1482 1484 1485 1487 1489 1491 1493 1495 1496 1498 1500 1502 1504 1506 1507 1509 1510 1512 1512 1513 1512 1512 1514 1514 1515 1516 1516 1517 1517 1517 1517 1517 1518 1518 1518 1518 1519 1519 1519 1519
1474 1476 1477 1478 1479 1481 1483 1485 1487 1488 1490 1492 1494 1495 1497 1499 1500 1502 1504 1506 1507 1508 1508 1508 1508 1509 1509 1510 1511 1512 1512 1512 1512 1512 1513 1513 1513 1513 1513 1513 1514 1514 1514
1471 1472 1473 1474 1476 1477 1479 1480 1482 1484 1486 1487 1489 1491 1493 1494 1496 1498 1499 1501 1502 1503 1504 1504 1504 1504 1505 1506 1507 1507 1507 1508 1508 1508 1508 1508 1508 1508 1508 1508 1508 1508 1508
1468 1468 1469 1470 1472 1473 1474 1476 1478 1479 1481 1483 1484 1486 1488 1489 1491 1493 1495 1496 1497 1498 1499 1500 1500 1500 1500 1501 1502 1502 1503 1503 1503 1503 1503 1503 1503 1503 1503 1503 1503 1503 1503
1464 1465 1465 1466 1467 1469 1470 1472 1473 1475 1476 1478 1479 1481 1483 1484 1486 1488 1490 1491 1493 1494 1495 1495 1495 1495 1496 1497 1497 1498 1498 1498 1498 1499 1499 1498 1498 1497 1497 1497 1497 1497 1497
1460 1461 1462 1463 1463 1465 1466 1467 1469 1471 1472 1473 1474 1476 1477 1479 1481 1483 1484 1486 1487 1489 1490 1491 1491 1491 1492 1492 1493 1493 1493 1493 1493 1494 1494 1492 1492 1492 1492 1492 1492 1492 1492
1457 1458 1458 1459 1460 1460 1462 1463 1464 1466 1467 1468 1470 1471 1472 1474 1476 1477 1479 1480 1482 1483 1485 1486 1487 1487 1488 1488 1489 1489 1489 1489 1488 1489 1489 1487 1486 1487 1486 1487 1487 1487 1487
1453 1454 1455 1456 1456 1456 1458 1459 1460 1461 1463 1464 1465 1467 1468 1469 1470 1472 1474 1475 1476 1478 1479 1480 1481 1482 1483 1484 1484 1485 1484 1484 1483 1483 1484 1483 1482 1481 1481 1481 1481 1481 1481
1450 1450 1451 1452 1452 1453 1454 1455 1457 1458 1458 1459 1461 1462 1464 1465 1466 1467 1469 1470 1471 1472 1474 1475 1476 1477 1477 1478 1479 1480 1479 1480 1479 1478 1478 1479 1478 1478 1476 1475 1476 1476 1476